{"data":{"norad_id":65537,"intl_designator":"2025-200T","name":"STARLINK-35136","alt_names":[],"object_type":"PAYLOAD","status":"ACTIVE","operator":null,"country":"US","launch_date":"2025-09-06","launch_site_code":"AFWTR","launch_vehicle":null,"mission":null,"orbit_class":"UNKNOWN","rcs_meters":null,"size_class":null,"mass_kg":null,"dimensions":null,"purposes":["comms"],"wikipedia_slug":null,"has_3d_model":false,"image_url":null,"decayed_at":null,"tle_current":{"epoch":"2026-05-25T03:37:39.247680Z","epoch_age_seconds":52170,"freshness":"FRESH","line1":"1 65537U 25200T   26145.15114870 -.00006354  00000+0 -43686-3 0  9999","line2":"2 65537  97.4527 214.7598 0001966 219.9353 140.1730 15.05632390 40545","mean_motion":15.0563239,"eccentricity":0.0001966,"inclination_deg":97.4527,"raan_deg":214.7598,"arg_perigee_deg":219.9353,"mean_anomaly_deg":140.173,"bstar":-0.00043686,"rev_number":4054,"period_min":95.640875526064,"perigee_km":548.2031852478,"apogee_km":550.92715774163,"semimajor_km":6927.7021714947,"source":"CELESTRAK","updated_at":"2026-05-25T13:38:20.849846Z"}}}